Flag for Germany Weather past 2 weeks in Gross-Gerau, Hesse, Germany

Now
61 °F

Drizzle. Broken clouds.


Feels Like: 61 °F
Forecast: 55 / 71 °F
Wind: 7 mph from South

Location: Frankfurt-M-Flughafen Airport

Current Time: May 3, 2015 at 3:03:41 PM

Latest Report: May 3, 2015 at 2:20 PM


Visibility: 5 mi

Pressure: 29.71 "Hg

Humidity: 94%

Dew point: 59 °F

Location of Gross-GerauLocation

Historic Weather in Gross-Gerau — Graph

°F

Gross-Gerau temperature yesterday

Maximum temperature yesterday: 61 °F (at 2:50 PM)
Minimum temperature yesterday: 36 °F (at 5:20 AM)
Average temperature yesterday: 51 °F

Past Weeks' High & Low Weather Summary

 TemperatureHumidityPressure
High75 °F (Apr 21, 4:50 PM)100% (Apr 23, 5:50 AM)30.42 "Hg (Apr 23, 5:50 AM)
Low32 °F (Apr 29, 4:20 AM)20% (Apr 19, 5:20 PM)29.56 "Hg (Apr 27, 3:50 AM)
Average53 °F64%29.99 "Hg
* Reported Apr 18 1:20 PM — May 3 1:50 PM, Gross-Gerau, Weather by CustomWeather, © 2015

Note: Actual official high and low records may vary slightly from our data, if they occured in-between our weather recording intervals... More about our weather records

Advertising

Gross-Gerau weather history for previous 24 hours

 ConditionsComfort  
Time TempWeatherWind HumidityBarometerVisibility
1:50 PM
Sun, May 3
59 °FDrizzle. Broken clouds.7 mph94%29.71 "Hg2 mi
1:20 PM59 °FDrizzle. Broken clouds.7 mph88%29.71 "HgN/A
12:50 PM59 °FBroken clouds.5 mph88%29.71 "HgN/A
12:20 PM59 °FPartly sunny.5 mph88%29.71 "HgN/A
11:50 AM57 °FPartly sunny.3 mph94%29.71 "HgN/A
11:20 AM55 °FLow clouds.5 mph94%29.71 "HgN/A
10:50 AM55 °FDrizzle. Mostly cloudy.3 mph94%29.71 "Hg5 mi
10:20 AM55 °FMostly cloudy.5 mph94%29.71 "Hg6 mi
9:50 AM54 °FDrizzle. Partly sunny.6 mph94%29.71 "Hg4 mi
9:20 AM54 °FDrizzle. Broken clouds.5 mph94%29.71 "Hg4 mi
8:50 AM54 °FDrizzle. More clouds than sun.5 mph94%29.71 "Hg4 mi
8:20 AM52 °FLight rain. Overcast.5 mph94%29.71 "Hg5 mi
7:50 AM54 °FBroken clouds.5 mph88%29.74 "HgN/A
7:20 AM52 °FBroken clouds.7 mph94%29.71 "HgN/A
6:50 AM52 °FLight rain. Passing clouds.7 mph94%29.71 "HgN/A
6:20 AM52 °FPassing clouds.8 mph88%29.74 "HgN/A
5:50 AM52 °FOvercast.8 mph88%29.74 "HgN/A
5:20 AM52 °FLight rain. Passing clouds.8 mph88%29.74 "HgN/A
4:50 AM52 °FLight rain. Mostly cloudy.6 mph88%29.74 "HgN/A
4:20 AM52 °FLight rain. Mostly cloudy.5 mph88%29.74 "HgN/A
3:50 AM52 °FLight rain. Mostly cloudy.5 mph88%29.74 "HgN/A
3:20 AM52 °FLight rain. Mostly cloudy.6 mph88%29.74 "HgN/A
2:50 AM52 °FOvercast.6 mph88%29.77 "HgN/A
2:20 AM52 °FOvercast.5 mph88%29.77 "HgN/A
1:50 AM50 °FMostly cloudy.5 mph94%29.77 "HgN/A
1:20 AM50 °FMostly cloudy.5 mph94%29.80 "HgN/A
12:50 AM50 °FPartly cloudy.No wind94%29.80 "HgN/A
12:20 AM52 °FLight rain. Mostly cloudy.6 mph88%29.83 "HgN/A
11:50 PM
Sat, May 2
52 °FLight rain. Partly cloudy.5 mph82%29.83 "HgN/A
11:20 PM52 °FClear.3 mph82%29.83 "Hg10 mi
10:50 PM54 °FClear.5 mph72%29.83 "Hg10 mi
10:20 PM52 °FClear.5 mph77%29.83 "Hg10 mi
9:50 PM52 °FClear.6 mph77%29.83 "Hg10 mi
9:20 PM52 °FPassing clouds.3 mph77%29.83 "HgN/A
8:50 PM55 °FSunny.3 mph63%29.83 "Hg10 mi
8:20 PM59 °FPassing clouds.5 mph51%29.83 "HgN/A
7:50 PM59 °FSunny.6 mph51%29.86 "Hg10 mi
7:20 PM59 °FSunny.7 mph48%29.86 "Hg10 mi
6:50 PM59 °FSunny.8 mph45%29.86 "Hg10 mi
6:20 PM61 °FPassing clouds.7 mph39%29.86 "HgN/A
5:50 PM61 °FSunny.7 mph39%29.86 "Hg10 mi
5:20 PM61 °FPassing clouds.8 mph39%29.86 "HgN/A
4:50 PM61 °FPassing clouds.7 mph39%29.86 "HgN/A
4:20 PM61 °FPassing clouds.9 mph34%29.86 "HgN/A
3:50 PM61 °FSunny.6 mph34%29.86 "Hg10 mi
3:20 PM61 °FPassing clouds.6 mph34%29.86 "HgN/A
Weather by CustomWeather, © 2015

See weather overviewHow to use our weather pages